Year,Month,Day,Hour,Minute,Value (Times are PST for temperature in C)
2013,08,14,00,02,15.30
2013,08,14,00,03,15.30
2013,08,14,00,04,15.30
2013,08,14,00,05,15.30
2013,08,14,00,06,15.30
2013,08,14,00,07,15.30
2013,08,14,00,08,15.30
2013,08,14,00,09,15.30
2013,08,14,00,10,15.30
2013,08,14,03,29,13.40
2013,08,14,03,32,13.40
2013,08,14,03,33,13.30
2013,08,14,03,34,13.30
2013,08,14,03,36,13.30
2013,08,14,03,37,13.30
2013,08,14,03,38,13.30
2013,08,14,03,39,13.20
2013,08,14,03,41,13.20
2013,08,14,03,42,13.20
2013,08,14,03,43,13.20
2013,08,14,03,44,13.20
2013,08,14,03,46,13.20
2013,08,14,03,47,13.20
2013,08,14,03,48,13.20
2013,08,14,03,49,13.20
2013,08,14,03,51,13.20
2013,08,14,03,52,13.20
2013,08,14,03,53,13.20
2013,08,14,03,55,13.20
2013,08,14,03,56,13.20
2013,08,14,03,57,13.20
2013,08,14,03,59,13.20
2013,08,14,04,00,13.20
2013,08,14,04,01,13.20
2013,08,14,04,02,13.20
2013,08,14,04,04,13.20
2013,08,14,04,05,13.20
2013,08,14,04,06,13.20
2013,08,14,04,07,13.20
2013,08,14,04,09,13.20
2013,08,14,04,10,13.20
2013,08,14,04,11,13.20
2013,08,14,04,13,13.20
2013,08,14,04,14,13.20
2013,08,14,04,15,13.20
2013,08,14,04,16,13.30
2013,08,14,04,18,13.30
2013,08,14,04,19,13.30
2013,08,14,04,20,13.30
2013,08,14,04,21,13.30
2013,08,14,04,23,13.30
2013,08,14,04,24,13.30
2013,08,14,04,25,13.30
2013,08,14,04,26,13.30
2013,08,14,04,28,13.30
2013,08,14,04,29,13.20
2013,08,14,04,30,13.20
2013,08,14,04,31,13.20
2013,08,14,04,33,13.20
2013,08,14,04,34,13.20
2013,08,14,04,35,13.20
2013,08,14,04,36,13.20
2013,08,14,04,37,13.20
2013,08,14,04,38,13.20
2013,08,14,04,39,13.20
2013,08,14,04,41,13.20
2013,08,14,04,43,13.20
2013,08,14,04,44,13.10
2013,08,14,04,45,13.10
2013,08,14,04,46,13.10
2013,08,14,04,47,13.10
2013,08,14,04,48,13.10
2013,08,14,04,49,13.10
2013,08,14,04,50,13.10
2013,08,14,04,51,13.10
2013,08,14,04,52,13.10
2013,08,14,04,53,13.10
2013,08,14,04,54,13.10
2013,08,14,04,55,13.10
2013,08,14,04,56,13.10
2013,08,14,04,58,13.00
2013,08,14,04,59,13.00
2013,08,14,05,00,13.00
2013,08,14,05,01,13.00
2013,08,14,05,02,13.00
2013,08,14,05,03,13.00
2013,08,14,05,04,13.10
2013,08,14,05,05,13.10
2013,08,14,05,07,13.10
2013,08,14,05,08,13.00
2013,08,14,05,09,13.00
2013,08,14,05,10,13.00
2013,08,14,05,12,12.90
2013,08,14,05,13,12.90
2013,08,14,05,14,12.90
2013,08,14,05,15,12.90
2013,08,14,05,16,12.80
2013,08,14,05,17,12.80
2013,08,14,05,18,12.80
2013,08,14,05,19,12.80
2013,08,14,05,20,12.80
2013,08,14,05,21,12.80
2013,08,14,05,22,12.70
2013,08,14,05,23,12.70
2013,08,14,05,24,12.70
2013,08,14,05,26,12.70
2013,08,14,05,27,12.70
2013,08,14,05,28,12.70
2013,08,14,05,29,12.70
2013,08,14,05,30,12.60
2013,08,14,05,31,12.60
2013,08,14,05,32,12.60
2013,08,14,05,33,12.60
2013,08,14,05,34,12.60
2013,08,14,05,36,12.60
2013,08,14,05,37,12.50
2013,08,14,05,38,12.50
2013,08,14,05,40,12.50
2013,08,14,05,41,12.50
2013,08,14,05,42,12.40
2013,08,14,05,43,12.40
2013,08,14,05,45,12.40
2013,08,14,05,46,12.40
2013,08,14,05,47,12.40
2013,08,14,05,48,12.40
2013,08,14,05,49,12.40
2013,08,14,05,50,12.40
2013,08,14,05,51,12.40
2013,08,14,05,52,12.40
2013,08,14,05,53,12.40
2013,08,14,05,55,12.30
2013,08,14,05,56,12.30
2013,08,14,05,57,12.30
2013,08,14,05,58,12.30
2013,08,14,05,59,12.30
2013,08,14,06,00,12.30
2013,08,14,06,01,12.30
2013,08,14,06,02,12.30
2013,08,14,06,03,12.30
2013,08,14,06,04,12.30
2013,08,14,06,06,12.30
2013,08,14,06,07,12.30
2013,08,14,06,08,12.30
2013,08,14,06,09,12.20
2013,08,14,06,11,12.20
2013,08,14,06,12,12.20
2013,08,14,06,13,12.20
2013,08,14,06,14,12.20
2013,08,14,06,15,12.20
2013,08,14,06,16,12.20
2013,08,14,06,17,12.20
2013,08,14,06,18,12.20
2013,08,14,06,20,12.20
2013,08,14,06,21,12.20
2013,08,14,06,22,12.20
2013,08,14,06,23,12.20
2013,08,14,06,25,12.20
2013,08,14,06,26,12.20
2013,08,14,06,27,12.20
2013,08,14,06,28,12.20
2013,08,14,06,29,12.20
2013,08,14,06,30,12.20
2013,08,14,06,31,12.20
2013,08,14,06,32,12.20
2013,08,14,06,33,12.20
2013,08,14,06,35,12.20
2013,08,14,06,36,12.20
2013,08,14,06,37,12.20
2013,08,14,06,39,12.20
2013,08,14,06,40,12.20
2013,08,14,06,41,12.20
2013,08,14,06,43,12.20
2013,08,14,06,44,12.20
2013,08,14,06,45,12.20
2013,08,14,06,46,12.20
2013,08,14,06,48,12.20
2013,08,14,06,49,12.20
2013,08,14,06,50,12.30
2013,08,14,06,51,12.30
2013,08,14,06,53,12.30
2013,08,14,06,54,12.30
2013,08,14,06,55,12.30
2013,08,14,06,56,12.30
2013,08,14,06,57,12.30
2013,08,14,06,58,12.30
2013,08,14,06,59,12.30
2013,08,14,07,00,12.30
2013,08,14,07,01,12.40
2013,08,14,07,02,12.40
2013,08,14,07,04,12.40
2013,08,14,07,05,12.40
2013,08,14,07,06,12.50
2013,08,14,07,07,12.60
2013,08,14,07,09,12.60
2013,08,14,07,10,12.70
2013,08,14,07,11,12.70
2013,08,14,07,12,12.80
2013,08,14,07,14,12.80
2013,08,14,07,15,12.90
2013,08,14,07,16,12.90
2013,08,14,07,18,13.00
2013,08,14,07,19,13.10
2013,08,14,07,20,13.20
2013,08,14,07,21,13.20
2013,08,14,07,23,13.30
2013,08,14,07,24,13.40
2013,08,14,07,25,13.40
2013,08,14,07,26,13.60
2013,08,14,07,28,13.60
2013,08,14,07,29,13.70
2013,08,14,07,30,13.80
2013,08,14,07,32,13.90
2013,08,14,07,33,14.00
2013,08,14,07,34,14.10
2013,08,14,07,35,14.20
2013,08,14,07,37,14.20
2013,08,14,07,38,14.30
2013,08,14,07,39,14.40
2013,08,14,07,40,14.40
2013,08,14,07,42,14.50
2013,08,14,07,43,14.60
2013,08,14,07,44,14.70
2013,08,14,07,45,14.70
2013,08,14,07,47,14.80
2013,08,14,07,48,14.80
2013,08,14,07,49,14.90
2013,08,14,07,50,14.90
2013,08,14,07,52,14.90
2013,08,14,07,53,15.10
2013,08,14,07,54,15.10
2013,08,14,07,56,15.20
2013,08,14,07,57,15.30
2013,08,14,07,58,15.30
2013,08,14,07,59,15.30
2013,08,14,08,00,15.40
2013,08,14,08,01,15.40
2013,08,14,08,02,15.50
2013,08,14,08,03,15.60
2013,08,14,08,05,15.70
2013,08,14,08,06,15.80
2013,08,14,08,07,15.90
2013,08,14,08,08,15.90
2013,08,14,08,10,16.00
2013,08,14,08,11,16.10
2013,08,14,08,12,16.10
2013,08,14,08,13,16.10
2013,08,14,08,15,16.10
2013,08,14,08,16,16.20
2013,08,14,08,17,16.20
2013,08,14,08,19,16.20
2013,08,14,08,20,16.10
2013,08,14,08,21,16.10
2013,08,14,08,23,16.10
2013,08,14,08,24,16.10
2013,08,14,08,25,16.00
2013,08,14,08,26,16.00
2013,08,14,08,28,16.00
2013,08,14,08,29,15.90
2013,08,14,08,30,15.90
2013,08,14,08,31,15.90
2013,08,14,08,33,16.00
2013,08,14,08,34,15.90
2013,08,14,08,35,16.00
2013,08,14,08,36,15.90
2013,08,14,08,37,15.90
2013,08,14,08,38,15.90
2013,08,14,08,39,15.90
2013,08,14,08,40,15.90
2013,08,14,08,41,15.90
2013,08,14,08,43,15.90
2013,08,14,08,44,16.00
2013,08,14,08,45,16.00
2013,08,14,08,46,15.90
2013,08,14,08,47,15.90
2013,08,14,08,48,15.90
2013,08,14,08,49,15.90
2013,08,14,08,50,15.90
2013,08,14,08,51,15.90
2013,08,14,08,53,15.90
2013,08,14,08,54,15.90
2013,08,14,08,55,15.90
2013,08,14,08,56,15.80
2013,08,14,08,57,15.80
2013,08,14,08,58,15.80
2013,08,14,08,59,15.70
2013,08,14,09,00,15.70
2013,08,14,09,01,15.70
2013,08,14,09,02,15.70
2013,08,14,09,03,15.70
2013,08,14,09,04,15.70
2013,08,14,09,05,15.70
2013,08,14,09,07,15.70
2013,08,14,09,08,15.70
2013,08,14,09,09,15.70
2013,08,14,09,10,15.70
2013,08,14,09,11,15.70
2013,08,14,09,13,15.70
2013,08,14,09,14,15.70
2013,08,14,09,15,15.70
2013,08,14,09,16,15.70
2013,08,14,09,18,15.70
2013,08,14,09,19,15.70
2013,08,14,09,20,15.70
2013,08,14,09,21,15.70
2013,08,14,09,23,15.70
2013,08,14,09,24,15.70
2013,08,14,09,25,15.70
2013,08,14,09,26,15.70
2013,08,14,09,27,15.70
2013,08,14,09,28,15.70
2013,08,14,09,29,15.70
2013,08,14,09,31,15.70
2013,08,14,09,33,15.70
2013,08,14,09,34,15.70
2013,08,14,09,35,15.80
2013,08,14,09,36,15.80
2013,08,14,09,37,15.80
2013,08,14,09,38,15.80
2013,08,14,09,39,15.80
2013,08,14,09,40,15.80
2013,08,14,09,41,15.80
2013,08,14,09,42,15.80
2013,08,14,09,43,15.80
2013,08,14,09,44,15.80
2013,08,14,09,45,15.80
2013,08,14,09,46,15.90
2013,08,14,09,47,15.90
2013,08,14,09,49,15.90
2013,08,14,09,50,16.00
2013,08,14,09,51,16.00
2013,08,14,09,52,16.10
2013,08,14,09,54,16.10
2013,08,14,09,55,16.20
2013,08,14,09,56,16.20
2013,08,14,09,57,16.20
2013,08,14,09,59,16.20
2013,08,14,10,00,16.30
2013,08,14,10,01,16.30
2013,08,14,10,02,16.30
2013,08,14,10,03,16.40
2013,08,14,10,05,16.40
2013,08,14,10,06,16.40
2013,08,14,10,07,16.40
2013,08,14,10,08,16.50
2013,08,14,10,10,16.50
2013,08,14,10,11,16.50
2013,08,14,10,12,16.50
2013,08,14,10,14,16.50
2013,08,14,10,15,16.50
2013,08,14,10,16,16.50
2013,08,14,10,17,16.50
2013,08,14,10,19,16.50
2013,08,14,10,20,16.60
2013,08,14,10,21,16.60
2013,08,14,10,22,16.60
2013,08,14,10,23,16.60
2013,08,14,10,25,16.70
2013,08,14,10,26,16.70
2013,08,14,10,27,16.70
2013,08,14,10,28,16.80
2013,08,14,10,30,16.80
2013,08,14,10,31,16.80
2013,08,14,10,32,16.90
2013,08,14,10,34,16.90
2013,08,14,10,35,16.90
2013,08,14,10,36,16.90
2013,08,14,10,37,17.00
2013,08,14,10,39,17.00
2013,08,14,10,40,17.00
2013,08,14,10,41,17.10
2013,08,14,10,43,17.10
2013,08,14,10,44,17.10
2013,08,14,10,45,17.10
2013,08,14,10,46,17.20
2013,08,14,10,48,17.20
2013,08,14,10,49,17.20
2013,08,14,10,50,17.20
2013,08,14,10,51,17.30
2013,08,14,10,52,17.30
2013,08,14,10,53,17.30
2013,08,14,10,54,17.30
2013,08,14,10,55,17.30
2013,08,14,10,56,17.30
2013,08,14,10,57,17.30
2013,08,14,10,59,17.40
2013,08,14,11,00,17.40
2013,08,14,11,01,17.40
2013,08,14,11,03,17.40
2013,08,14,11,04,17.40
2013,08,14,11,05,17.50
2013,08,14,11,06,17.50
2013,08,14,11,08,17.60
2013,08,14,11,09,17.60
2013,08,14,11,10,17.70
2013,08,14,11,11,17.70
2013,08,14,11,13,17.70
2013,08,14,11,14,17.80
2013,08,14,11,15,17.80
2013,08,14,11,16,17.80
2013,08,14,11,18,17.90
2013,08,14,11,19,18.00
2013,08,14,11,20,18.10
2013,08,14,11,22,18.20
2013,08,14,11,23,18.30
2013,08,14,11,24,18.40
2013,08,14,11,25,18.40
2013,08,14,11,26,18.50
2013,08,14,11,27,18.60
2013,08,14,11,28,18.60
2013,08,14,11,29,18.60
2013,08,14,11,30,18.70
2013,08,14,11,32,18.70
2013,08,14,11,33,18.80
2013,08,14,11,34,18.80
2013,08,14,11,36,18.80
2013,08,14,11,37,18.90
2013,08,14,11,38,18.90
2013,08,14,11,39,18.90
2013,08,14,11,41,18.90
2013,08,14,11,42,18.90
2013,08,14,11,43,18.90
2013,08,14,11,44,18.90
2013,08,14,11,46,18.90
2013,08,14,11,47,18.80
2013,08,14,11,48,18.80
2013,08,14,11,49,18.80
2013,08,14,11,50,18.80
2013,08,14,11,52,18.80
2013,08,14,11,53,18.80
2013,08,14,11,54,18.80
2013,08,14,11,55,18.90
2013,08,14,11,57,18.90
2013,08,14,11,58,19.10
2013,08,14,11,59,19.10
2013,08,14,12,00,19.10
2013,08,14,12,01,19.10
2013,08,14,12,02,19.20
2013,08,14,12,03,19.20
2013,08,14,12,04,19.20
2013,08,14,12,05,19.30
2013,08,14,12,07,19.30
2013,08,14,12,08,19.30
2013,08,14,12,09,19.20
2013,08,14,12,11,19.20
2013,08,14,12,12,19.20
2013,08,14,12,13,19.20
2013,08,14,12,14,19.20
2013,08,14,12,15,19.20
2013,08,14,12,17,19.30
2013,08,14,12,18,19.30
2013,08,14,12,19,19.40
2013,08,14,12,20,19.40
2013,08,14,12,22,19.60
2013,08,14,12,23,19.70
2013,08,14,12,24,19.80
2013,08,14,12,25,19.80
2013,08,14,12,26,19.90
2013,08,14,12,27,20.00
2013,08,14,12,29,20.20
2013,08,14,12,30,20.20
2013,08,14,12,32,20.10
2013,08,14,12,33,20.10
2013,08,14,12,34,20.10
2013,08,14,12,36,20.10
2013,08,14,12,37,20.00
2013,08,14,12,38,20.00
2013,08,14,12,39,20.10
2013,08,14,12,41,20.10
2013,08,14,12,42,20.10
2013,08,14,12,43,20.10
2013,08,14,12,44,20.20
2013,08,14,12,45,20.20
2013,08,14,12,46,20.20
2013,08,14,12,47,20.20
2013,08,14,12,48,20.20
2013,08,14,12,49,20.20
2013,08,14,12,50,20.20
2013,08,14,12,51,20.20
2013,08,14,12,52,20.10
2013,08,14,12,53,20.20
2013,08,14,12,54,20.20
2013,08,14,12,56,20.10
2013,08,14,12,57,20.00
2013,08,14,12,58,20.00
2013,08,14,12,59,19.90
2013,08,14,13,00,19.80
2013,08,14,13,01,19.70
2013,08,14,13,02,19.70
2013,08,14,13,03,19.60
2013,08,14,13,04,19.60
2013,08,14,13,05,19.60
2013,08,14,13,06,19.60
2013,08,14,13,08,19.60
2013,08,14,13,09,19.60
2013,08,14,13,10,19.60
2013,08,14,13,11,19.60
2013,08,14,13,12,19.60
2013,08,14,13,13,19.60
2013,08,14,13,14,19.70
2013,08,14,13,15,19.70
2013,08,14,13,16,19.80
2013,08,14,13,18,19.80
2013,08,14,13,19,19.90
2013,08,14,13,20,19.90
2013,08,14,13,22,19.90
2013,08,14,13,23,19.90
2013,08,14,13,24,20.00
2013,08,14,13,25,20.00
2013,08,14,13,27,20.00
2013,08,14,13,28,19.90
2013,08,14,13,29,19.90
2013,08,14,13,32,20.00
2013,08,14,13,33,20.00
2013,08,14,13,34,20.00
2013,08,14,13,35,20.00
2013,08,14,13,36,20.00
2013,08,14,13,37,20.10
2013,08,14,13,38,20.10
2013,08,14,13,39,20.20
2013,08,14,13,40,20.20
2013,08,14,13,41,20.30
2013,08,14,13,42,20.30
2013,08,14,13,43,20.30
2013,08,14,13,44,20.20
2013,08,14,13,45,20.30
2013,08,14,13,46,20.30
2013,08,14,13,47,20.30
2013,08,14,13,48,20.30
2013,08,14,13,49,20.30
2013,08,14,13,51,20.30
2013,08,14,13,53,20.30
2013,08,14,13,54,20.30
2013,08,14,13,55,20.30
2013,08,14,13,56,20.30
2013,08,14,13,57,20.30
2013,08,14,13,58,20.20
2013,08,14,13,59,20.20
2013,08,14,14,00,20.20
2013,08,14,14,02,20.20
2013,08,14,14,03,20.20
2013,08,14,14,04,20.20
2013,08,14,14,07,20.10
2013,08,14,14,08,20.20
2013,08,14,14,09,20.20
2013,08,14,14,10,20.30
2013,08,14,14,11,20.30
2013,08,14,14,12,20.30
2013,08,14,14,13,20.40
2013,08,14,14,14,20.40
2013,08,14,14,16,20.40
2013,08,14,14,17,20.50
2013,08,14,14,18,20.50
2013,08,14,14,19,20.60
2013,08,14,14,20,20.60
2013,08,14,14,21,20.60
2013,08,14,14,22,20.60
2013,08,14,14,23,20.60
2013,08,14,14,24,20.60
2013,08,14,14,25,20.60
2013,08,14,14,26,20.50
2013,08,14,14,27,20.40
2013,08,14,14,28,20.40
2013,08,14,14,30,20.40
2013,08,14,14,31,20.40
2013,08,14,14,32,20.50
2013,08,14,14,33,20.50
2013,08,14,14,35,20.50
2013,08,14,14,36,20.60
2013,08,14,14,37,20.60
2013,08,14,14,38,20.60
2013,08,14,14,39,20.60
2013,08,14,14,40,20.60
2013,08,14,14,41,20.60
2013,08,14,14,42,20.70
2013,08,14,14,43,20.70
2013,08,14,14,45,20.70
2013,08,14,14,46,20.80
2013,08,14,14,47,20.80
2013,08,14,14,48,20.90
2013,08,14,14,49,20.90
2013,08,14,14,50,20.90
2013,08,14,14,51,20.90
2013,08,14,14,52,20.90
2013,08,14,14,53,20.80
2013,08,14,14,54,20.80
2013,08,14,14,56,20.80
2013,08,14,14,57,20.70
2013,08,14,14,58,20.60
2013,08,14,14,59,20.50
2013,08,14,15,00,20.40
2013,08,14,15,01,20.40
2013,08,14,15,02,20.30
2013,08,14,15,03,20.30
2013,08,14,15,04,20.30
2013,08,14,15,05,20.40
2013,08,14,15,06,20.40
2013,08,14,15,07,20.40
2013,08,14,15,08,20.50
2013,08,14,15,10,20.50
2013,08,14,15,11,20.50
2013,08,14,15,12,20.50
2013,08,14,15,13,20.60
2013,08,14,15,14,20.60
2013,08,14,15,15,20.60
2013,08,14,15,16,20.60
2013,08,14,15,17,20.50
2013,08,14,15,18,20.50
2013,08,14,15,19,20.60
2013,08,14,15,20,20.60
2013,08,14,15,21,20.60
2013,08,14,15,22,20.60
2013,08,14,15,23,20.60
2013,08,14,15,24,20.60
2013,08,14,15,26,20.60
2013,08,14,15,27,20.60
2013,08,14,15,28,20.60
2013,08,14,15,29,20.60
2013,08,14,15,30,20.60
2013,08,14,15,32,20.60
2013,08,14,15,33,20.60
2013,08,14,15,34,20.60
2013,08,14,15,36,20.60
2013,08,14,15,37,20.50
2013,08,14,15,38,20.40
2013,08,14,15,40,20.40
2013,08,14,15,41,20.40
2013,08,14,15,42,20.40
2013,08,14,15,43,20.40
2013,08,14,15,44,20.40
2013,08,14,15,45,20.40
2013,08,14,15,46,20.30
2013,08,14,15,47,20.30
2013,08,14,15,48,20.30
2013,08,14,15,50,20.30
2013,08,14,15,51,20.20
2013,08,14,15,52,20.20
2013,08,14,15,53,20.10
2013,08,14,15,54,20.10
2013,08,14,15,55,20.10
2013,08,14,15,56,20.10
2013,08,14,15,57,20.00
2013,08,14,15,59,19.90
2013,08,14,16,00,19.90
2013,08,14,16,01,19.90
2013,08,14,16,02,19.90
2013,08,14,16,03,19.90
2013,08,14,16,04,19.80
2013,08,14,16,05,19.80
2013,08,14,16,06,19.80
2013,08,14,16,07,19.80
2013,08,14,16,09,19.80
2013,08,14,16,10,19.70
2013,08,14,16,11,19.70
2013,08,14,16,13,19.70
2013,08,14,16,14,19.60
2013,08,14,16,15,19.50
2013,08,14,16,16,19.40
2013,08,14,16,18,19.40
2013,08,14,16,19,19.30
2013,08,14,16,20,19.20
2013,08,14,16,21,19.20
2013,08,14,16,23,19.10
2013,08,14,16,24,19.00
2013,08,14,16,25,18.90
2013,08,14,16,26,18.90
2013,08,14,16,28,18.90
2013,08,14,16,29,18.80
2013,08,14,16,30,18.80
2013,08,14,16,31,18.80
2013,08,14,16,33,18.80
2013,08,14,16,34,18.80
2013,08,14,16,35,18.80
2013,08,14,16,36,18.80
2013,08,14,16,37,18.80
2013,08,14,16,38,18.80
2013,08,14,16,39,18.80
2013,08,14,16,40,18.80
2013,08,14,16,41,18.80
2013,08,14,16,43,18.80
2013,08,14,16,44,18.80
2013,08,14,16,45,18.80
2013,08,14,16,46,18.80
2013,08,14,16,47,18.80
2013,08,14,16,48,18.80
2013,08,14,16,49,18.80
2013,08,14,16,50,18.80
2013,08,14,16,51,18.80
2013,08,14,16,53,18.80
2013,08,14,16,54,18.80
2013,08,14,16,55,18.80
2013,08,14,16,56,18.80
2013,08,14,16,57,18.80
2013,08,14,16,58,18.80
2013,08,14,16,59,18.80
2013,08,14,17,00,18.80
2013,08,14,17,01,18.80
2013,08,14,17,03,18.80
2013,08,14,17,04,18.90
2013,08,14,17,05,18.90
2013,08,14,17,06,18.90
2013,08,14,17,07,18.90
2013,08,14,17,08,18.90
2013,08,14,17,09,18.90
2013,08,14,17,10,18.90
2013,08,14,17,11,18.90
2013,08,14,17,12,18.80
2013,08,14,17,13,18.80
2013,08,14,17,14,18.80
2013,08,14,17,15,18.80
2013,08,14,17,16,18.80
2013,08,14,17,17,18.80
2013,08,14,17,18,18.80
2013,08,14,17,19,18.70
2013,08,14,17,20,18.70
2013,08,14,17,21,18.70
2013,08,14,17,22,18.70
2013,08,14,17,23,18.60
2013,08,14,17,24,18.60
2013,08,14,17,25,18.60
2013,08,14,17,27,18.50
2013,08,14,17,28,18.40
2013,08,14,17,29,18.40
2013,08,14,17,31,18.40
2013,08,14,17,32,18.30
2013,08,14,17,33,18.30
2013,08,14,17,34,18.30
2013,08,14,17,35,18.20
2013,08,14,17,36,18.20
2013,08,14,17,37,18.20
2013,08,14,17,38,18.20
2013,08,14,17,39,18.20
2013,08,14,17,40,18.20
2013,08,14,17,41,18.20
2013,08,14,17,42,18.10
2013,08,14,17,43,18.10
2013,08,14,17,44,18.10
2013,08,14,17,46,18.00
2013,08,14,17,47,17.90
2013,08,14,17,48,17.90
2013,08,14,17,49,17.90
2013,08,14,17,51,17.90
2013,08,14,17,52,17.90
2013,08,14,17,53,17.90
2013,08,14,17,54,17.90
2013,08,14,17,56,17.90
2013,08,14,17,57,17.90
2013,08,14,17,58,17.80
2013,08,14,17,59,17.80
2013,08,14,18,00,17.80
2013,08,14,18,01,17.80
2013,08,14,18,02,17.80
2013,08,14,18,03,17.80
2013,08,14,18,04,17.80
2013,08,14,18,05,17.70
2013,08,14,18,06,17.70
2013,08,14,18,07,17.70
2013,08,14,18,08,17.70
2013,08,14,18,10,17.70
2013,08,14,18,11,17.70
2013,08,14,18,12,17.70
2013,08,14,18,13,17.70
2013,08,14,18,15,17.60
2013,08,14,18,16,17.60
2013,08,14,18,17,17.60
2013,08,14,18,18,17.60
2013,08,14,18,19,17.60
2013,08,14,18,21,17.60
2013,08,14,18,22,17.60
2013,08,14,18,23,17.60
2013,08,14,18,24,17.70
2013,08,14,18,25,17.60
2013,08,14,18,26,17.60
2013,08,14,18,27,17.70
2013,08,14,18,29,17.70
2013,08,14,18,30,17.70
2013,08,14,18,31,17.60
2013,08,14,18,33,17.60
2013,08,14,18,34,17.60
2013,08,14,18,35,17.60
2013,08,14,18,36,17.60
2013,08,14,18,38,17.60
2013,08,14,18,39,17.60
2013,08,14,18,40,17.60
2013,08,14,18,41,17.50
2013,08,14,18,42,17.40
2013,08,14,18,44,17.40
2013,08,14,18,45,17.40
2013,08,14,18,46,17.40
2013,08,14,18,47,17.30
2013,08,14,18,49,17.30
2013,08,14,18,50,17.30
2013,08,14,18,51,17.20
2013,08,14,18,52,17.20
2013,08,14,18,54,17.10
2013,08,14,18,55,17.00
2013,08,14,18,56,16.90
2013,08,14,18,58,16.90
2013,08,14,18,59,16.80
2013,08,14,19,00,16.70
2013,08,14,19,02,16.60
2013,08,14,19,03,16.50
2013,08,14,19,04,16.40
2013,08,14,19,06,16.30
2013,08,14,19,07,16.20
2013,08,14,19,08,16.20
2013,08,14,19,09,16.10
2013,08,14,19,11,16.10
2013,08,14,19,12,16.10
2013,08,14,19,13,16.00
2013,08,14,19,14,15.90
2013,08,14,19,16,15.90
2013,08,14,19,17,15.90
2013,08,14,19,18,15.80
2013,08,14,19,19,15.80
2013,08,14,19,21,15.80
2013,08,14,19,22,15.80
2013,08,14,19,23,15.70
2013,08,14,19,24,15.70
2013,08,14,19,26,15.70
2013,08,14,19,27,15.70
2013,08,14,19,30,15.70
2013,08,14,19,31,15.70
2013,08,14,19,32,15.70
2013,08,14,19,33,15.70
2013,08,14,19,34,15.70
2013,08,14,19,36,15.80
2013,08,14,19,37,15.80
2013,08,14,19,38,15.80
2013,08,14,19,39,15.80
2013,08,14,19,40,15.80
2013,08,14,19,41,15.80
2013,08,14,19,42,15.80
2013,08,14,19,43,15.80
2013,08,14,19,45,15.90
2013,08,14,19,46,15.90
2013,08,14,19,47,15.90
2013,08,14,19,48,15.90
2013,08,14,19,49,15.90
2013,08,14,19,51,15.90
2013,08,14,19,52,15.80
2013,08,14,19,53,15.90
2013,08,14,19,54,15.80
2013,08,14,19,56,15.80
2013,08,14,19,57,15.80
2013,08,14,19,59,15.80
2013,08,14,20,01,15.80
2013,08,14,20,02,15.80
2013,08,14,20,04,15.80
2013,08,14,20,06,15.70
2013,08,14,20,07,15.70
2013,08,14,20,08,15.70
2013,08,14,20,09,15.70
2013,08,14,20,11,15.60
2013,08,14,20,13,15.60
2013,08,14,20,14,15.50
2013,08,14,20,15,15.40
2013,08,14,20,16,15.40
2013,08,14,20,17,15.40
2013,08,14,20,18,15.30
2013,08,14,20,19,15.30
2013,08,14,20,20,15.30
2013,08,14,20,21,15.20
2013,08,14,20,23,15.20
2013,08,14,20,24,15.10
2013,08,14,20,25,15.10
2013,08,14,20,26,15.00
2013,08,14,20,28,14.90
2013,08,14,20,29,14.90
2013,08,14,20,30,14.80
2013,08,14,20,31,14.80
2013,08,14,20,32,14.80
2013,08,14,20,33,14.80
2013,08,14,20,34,14.70
2013,08,14,20,36,14.70
2013,08,14,20,37,14.70
2013,08,14,20,38,14.60
2013,08,14,20,39,14.60
2013,08,14,20,40,14.60
2013,08,14,20,41,14.60
2013,08,14,20,43,14.60
2013,08,14,20,44,14.60
2013,08,14,20,45,14.60
2013,08,14,20,47,14.60
2013,08,14,20,48,14.50
2013,08,14,20,49,14.50
2013,08,14,20,52,14.40
2013,08,14,20,53,14.40
2013,08,14,20,54,14.40
2013,08,14,20,57,14.30
2013,08,14,20,58,14.30
2013,08,14,20,59,14.20
2013,08,14,21,01,14.20
2013,08,14,21,02,14.10
2013,08,14,21,03,14.10
2013,08,14,21,04,14.10
2013,08,14,21,06,14.00
2013,08,14,21,07,14.00
2013,08,14,21,09,13.90
2013,08,14,21,11,13.90
2013,08,14,21,12,13.90
2013,08,14,21,14,13.90
2013,08,14,21,15,13.90
2013,08,14,21,16,13.90
2013,08,14,21,17,13.90
2013,08,14,21,19,13.90
2013,08,14,21,21,13.80
2013,08,14,21,22,13.90
2013,08,14,21,23,13.90
2013,08,14,21,24,13.90
2013,08,14,21,25,13.90
2013,08,14,21,26,13.90
2013,08,14,21,27,13.90
2013,08,14,21,28,13.90
2013,08,14,21,29,13.90
2013,08,14,21,31,13.90
2013,08,14,21,32,13.90
2013,08,14,21,33,13.90
2013,08,14,21,34,14.00
2013,08,14,21,35,14.00
2013,08,14,21,36,14.00
2013,08,14,21,37,14.10
2013,08,14,21,38,14.10
2013,08,14,21,39,14.10
2013,08,14,21,41,14.10
2013,08,14,21,42,14.20
2013,08,14,21,43,14.20
2013,08,14,21,45,14.20
2013,08,14,21,46,14.20
2013,08,14,21,47,14.20
2013,08,14,21,48,14.30
2013,08,14,21,49,14.30
2013,08,14,21,50,14.30
2013,08,14,21,51,14.30
2013,08,14,21,52,14.30
2013,08,14,21,53,14.30
2013,08,14,21,54,14.30
2013,08,14,21,55,14.30
2013,08,14,21,56,14.30
2013,08,14,21,57,14.30
2013,08,14,21,59,14.30
2013,08,14,22,00,14.30
2013,08,14,22,01,14.30
2013,08,14,22,02,14.40
2013,08,14,22,03,14.40
2013,08,14,22,05,14.40
2013,08,14,22,06,14.40
2013,08,14,22,07,14.40
2013,08,14,22,08,14.40
2013,08,14,22,10,14.40
2013,08,14,22,11,14.50
2013,08,14,22,12,14.50
2013,08,14,22,13,14.50
2013,08,14,22,15,14.50
2013,08,14,22,16,14.60
2013,08,14,22,17,14.60
2013,08,14,22,18,14.60
2013,08,14,22,20,14.60
2013,08,14,22,21,14.60
2013,08,14,22,22,14.60
2013,08,14,22,23,14.60
2013,08,14,22,25,14.70
2013,08,14,22,26,14.70
2013,08,14,22,27,14.70
2013,08,14,22,28,14.70
2013,08,14,22,30,14.70
2013,08,14,22,31,14.70
2013,08,14,22,32,14.60
2013,08,14,22,33,14.60
2013,08,14,22,35,14.60
2013,08,14,22,36,14.60
2013,08,14,22,37,14.70
2013,08,14,22,38,14.70
2013,08,14,22,39,14.60
2013,08,14,22,41,14.60
2013,08,14,22,42,14.60
2013,08,14,22,43,14.60
2013,08,14,22,44,14.60
2013,08,14,22,46,14.60
2013,08,14,22,47,14.60
2013,08,14,22,48,14.60
2013,08,14,22,49,14.60
2013,08,14,22,50,14.60
2013,08,14,22,52,14.60
2013,08,14,22,53,14.70
2013,08,14,22,54,14.70
2013,08,14,22,55,14.70
2013,08,14,22,57,14.70
2013,08,14,22,58,14.70
2013,08,14,22,59,14.70
2013,08,14,23,00,14.70
2013,08,14,23,02,14.70
2013,08,14,23,03,14.70
2013,08,14,23,04,14.70
2013,08,14,23,05,14.70
2013,08,14,23,07,14.70
2013,08,14,23,08,14.70
2013,08,14,23,09,14.70
2013,08,14,23,10,14.70
2013,08,14,23,11,14.70
2013,08,14,23,13,14.70
2013,08,14,23,14,14.80
2013,08,14,23,15,14.70
2013,08,14,23,16,14.70
2013,08,14,23,17,14.80
2013,08,14,23,19,14.80
2013,08,14,23,20,14.80
2013,08,14,23,21,14.80
2013,08,14,23,22,14.80
2013,08,14,23,23,14.80
2013,08,14,23,24,14.80
2013,08,14,23,25,14.80
2013,08,14,23,27,14.80
2013,08,14,23,28,14.80
2013,08,14,23,29,14.80
2013,08,14,23,30,14.80
2013,08,14,23,32,14.80
2013,08,14,23,33,14.80
2013,08,14,23,34,14.80
2013,08,14,23,35,14.90
2013,08,14,23,37,14.90
2013,08,14,23,38,14.90
2013,08,14,23,39,14.90
2013,08,14,23,40,14.90
2013,08,14,23,42,14.90
2013,08,14,23,43,14.90
2013,08,14,23,44,14.90
2013,08,14,23,45,14.90
2013,08,14,23,47,14.90
2013,08,14,23,48,14.90
2013,08,14,23,49,14.90
2013,08,14,23,51,14.90
2013,08,14,23,52,14.90
2013,08,14,23,53,15.00
2013,08,14,23,55,14.90
2013,08,14,23,56,15.00
2013,08,14,23,57,14.90
2013,08,14,23,59,14.90
